Location: Carlisle
(34.5501°N, 84.5969°W)
Time: 13:23:23
(UTC+00:00)

UNISAT 6 - Visible Passes

Search period start: 01 April 2023 00:00
Search period end: 11 April 2023 00:00
Orbit: 602 x 680 km, 97.7° (Epoch: 31 March)

Date Brightness Start Highest point End Pass type
(mag) Time Alt. Az. Time Alt. Az. Time Alt. Az.
01 Apr ? 10:03:14 10° SE 10:07:20 40° ENE 10:11:32 10° N visible
02 Apr ? 10:26:37 10° SSE 10:31:00 79° ENE 10:35:30 10° N visible
03 Apr ? 09:17:01 10° E 09:18:45 12° ENE 09:20:30 10° NE visible
03 Apr ? 10:50:27 10° S 10:54:44 53° W 10:59:10 10° NNW visible
04 Apr ? 00:21:49 10° NNW 00:24:46 17° WNW 00:27:41 10° WSW visible
04 Apr ? 09:38:49 10° ESE 09:42:13 22° ENE 09:45:41 10° NNE visible
05 Apr ? 10:01:39 10° SE 10:05:47 40° ENE 10:10:00 10° N visible
06 Apr ? 10:24:59 10° SSE 10:29:24 77° ENE 10:33:57 10° N visible
07 Apr ? 09:15:25 10° E 09:17:08 12° ENE 09:18:51 10° NE visible
07 Apr ? 10:48:45 10° S 10:53:06 55° W 10:57:35 10° NNW visible
08 Apr ? 09:37:10 10° ESE 09:40:33 22° ENE 09:44:01 10° NNE visible
09 Apr ? 09:59:55 10° SE 10:04:05 39° ENE 10:08:19 10° N visible
10 Apr ? 10:23:12 10° SSE 10:27:40 74° ENE 10:32:15 10° N visible
